Flag for Germany Weather past 2 weeks in Sindelfingen, Baden-Württemberg, Germany

Now
39 °F

Clear.


Feels Like: 39 °F
Forecast: 41 / 60 °F
Wind: 2 mph from North

Location: Stuttgart-Echterdingen

Current Time: Apr 21, 2015 at 5:34:50 AM

Latest Report: Apr 21, 2015 at 4:50 AM


Visibility: 10 mi

Pressure: 30.33 "Hg

Humidity: 81%

Dew point: 34 °F

Location of SindelfingenLocation

Historic Weather in Sindelfingen — Graph

°F

Sindelfingen temperature yesterday

Maximum temperature yesterday: 63 °F (at 2:50 PM)
Minimum temperature yesterday: 36 °F (at 3:50 AM)
Average temperature yesterday: 51 °F

Past Weeks' High & Low Weather Summary

 TemperatureHumidityPressure
High77 °F (Apr 15, 3:20 PM)93% (Apr 8, 6:20 AM)30.60 "Hg (Apr 8, 6:20 AM)
Low27 °F (Apr 6, 7:20 AM)15% (Apr 15, 5:50 PM)29.86 "Hg (Apr 17, 7:50 AM)
Average52 °F58%30.25 "Hg
* Reported Apr 6 4:20 AM — Apr 21 4:20 AM, Sindelfingen, Weather by CustomWeather, © 2015

Note: Actual official high and low records may vary slightly from our data, if they occured in-between our weather recording intervals... More about our weather records

Advertising

Sindelfingen weather history for previous 24 hours

 ConditionsComfort  
Time TempWeatherWind HumidityBarometerVisibility
4:20 AM
Tue, Apr 21
37 °FClear.2 mph81%30.33 "Hg10 mi
3:50 AM43 °FClear.2 mph71%30.33 "Hg10 mi
3:20 AM43 °FClear.2 mph71%30.33 "Hg10 mi
2:50 AM43 °FPassing clouds.3 mph71%30.30 "HgN/A
2:20 AM41 °FClear.2 mph70%30.30 "Hg10 mi
1:50 AM43 °FClear.3 mph71%30.33 "Hg10 mi
1:20 AM45 °FClear.1 mph66%30.30 "Hg10 mi
12:50 AM46 °FClear.1 mph62%30.30 "Hg10 mi
12:20 AM46 °FClear.3 mph62%30.30 "Hg10 mi
11:50 PM
Mon, Apr 20
45 °FPassing clouds.3 mph66%30.30 "HgN/A
11:20 PM48 °FClear.3 mph58%30.30 "Hg10 mi
10:50 PM50 °FClear.5 mph50%30.30 "Hg10 mi
10:20 PM52 °FClear.5 mph47%30.30 "Hg10 mi
9:50 PM54 °FPassing clouds.3 mph44%30.27 "HgN/A
9:20 PM55 °FSunny.2 mph38%30.27 "Hg10 mi
8:50 PM57 °FSunny.3 mph36%30.27 "Hg10 mi
8:20 PM59 °FSunny.6 mph34%30.27 "Hg10 mi
7:50 PM61 °FSunny.8 mph31%30.24 "Hg10 mi
7:20 PM61 °FPassing clouds.8 mph31%30.24 "HgN/A
6:50 PM63 °FPassing clouds.12 mph32%30.24 "HgN/A
6:20 PM63 °FPassing clouds.9 mph30%30.24 "HgN/A
5:50 PM63 °FPassing clouds.10 mph30%30.21 "HgN/A
5:20 PM63 °FPassing clouds.13 mph30%30.21 "HgN/A
4:50 PM63 °FSunny.13 mph30%30.24 "Hg10 mi
4:20 PM63 °FPassing clouds.8 mph32%30.24 "HgN/A
3:50 PM63 °FPassing clouds.9 mph32%30.24 "HgN/A
3:20 PM63 °FPassing clouds.10 mph32%30.24 "HgN/A
2:50 PM63 °FPassing clouds.10 mph32%30.24 "HgN/A
2:20 PM61 °FPassing clouds.12 mph36%30.24 "HgN/A
1:50 PM61 °FSunny.3 mph29%30.24 "Hg10 mi
1:20 PM61 °FPassing clouds.9 mph31%30.24 "HgN/A
12:50 PM59 °FPassing clouds.9 mph36%30.24 "HgN/A
12:20 PM57 °FPassing clouds.7 mph36%30.24 "HgN/A
11:50 AM57 °FSunny.5 mph39%30.24 "Hg10 mi
11:20 AM57 °FSunny.2 mph44%30.24 "Hg10 mi
10:50 AM54 °FSunny.2 mph51%30.24 "Hg10 mi
10:20 AM52 °FPassing clouds.3 mph50%30.24 "HgN/A
9:50 AM50 °FSunny.2 mph50%30.24 "Hg10 mi
9:20 AM48 °FSunny.1 mph58%30.24 "Hg10 mi
8:50 AM45 °FPassing clouds.5 mph66%30.24 "HgN/A
8:20 AM43 °FSunny.1 mph71%30.24 "Hg10 mi
7:50 AM41 °FSunny.1 mph70%30.24 "Hg10 mi
7:20 AM37 °FClear.2 mph75%30.21 "Hg10 mi
6:50 AM37 °FClear.1 mph70%30.21 "Hg10 mi
6:20 AM36 °FClear.2 mph81%30.21 "Hg10 mi
5:50 AM36 °FClear.5 mph75%30.18 "Hg10 mi
5:20 AM36 °FClear.3 mph75%30.18 "Hg10 mi
Weather by CustomWeather, © 2015

See weather overviewHow to use our weather pages